IPIPIL3 Weather Reports


time (UTC)temp
C
wind
direction
speed
KPH
gust
KPH
rain 1hr
cm
rain 24hr
cm
rain mn
cm
humidity
%
barometer
mb
20260509043009 -17 526.3 410.4 0.00 0.00 0.00 1010.8
20260509041506 -17 526.3 410.4 0.00 0.00 0.00 1011.0
20260509040002 -17 526.3 410.4 0.00 0.00 0.00 1011.0
20260509034602 -17 526.3 410.4 0.00 0.00 0.00 1011.1
20260509033004 -17 526.3 410.4 0.00 0.00 0.00 1011.3
20260509031502 -17 526.3 410.4 0.00 0.00 0.00 1011.2
20260509030002 -17 526.3 410.4 0.00 0.00 0.00 1011.2
20260509024502 -17 526.3 410.4 0.00 0.00 0.00 1011.0
20260509023004 -17 526.3 410.4 0.00 0.00 0.00 1011.1
20260509021502 -17 526.3 410.4 0.00 0.00 0.00 1010.9
20260509020002 -17 526.3 410.4 0.00 0.00 0.00 1010.7
20260509014502 -17 526.3 410.4 0.00 0.00 0.00 1010.8
20260509013004 -17 526.3 410.4 0.00 0.00 0.00 1010.3
20260509011502 -17 526.3 410.4 0.00 0.00 0.00 1010.3
20260509010003 -17 526.3 410.4 0.00 0.00 0.00 1010.1
20260509004501 -17 526.3 410.4 0.00 0.00 0.00 1009.9
20260509003012 -17 526.3 410.4 0.00 0.00 0.00 1009.7
20260509001502 -17 526.3 410.4 0.00 0.00 0.00 1009.7
20260509000002 -17 526.3 410.4 0.00 0.00 0.00 1009.5
20260508234502 -17 526.3 410.4 0.00 0.00 0.00 1009.3
20260508233004 -17 526.3 410.4 0.00 0.00 0.00 1009.3
20260508231502 -17 526.3 410.4 0.00 0.00 0.00 1009.4
20260508230001 -17 81 1.6 4.8 0.00 0.00 0.00 85 1009.4
20260508224620 25 81 0.0 6.4 0.00 0.00 0.00 85 1009.2
20260508223006 25 81 1.6 6.4 0.00 0.00 0.00 84 1008.9
20260508221501 25 52 3.2 6.4 0.00 0.00 0.00 84 1009.1
20260508220001 25 58 4.8 8.0 0.00 0.00 0.00 83 1009.0
20260508214601 25 47 3.2 8.0 0.00 0.00 0.00 83 1008.9
20260508213003 25 58 6.4 9.7 0.00 0.00 0.00 83 1008.9
20260508211603 26 63 4.8 8.0 0.00 0.00 0.00 84 1009.0
20260508210001 26 74 4.8 11.3 0.00 0.00 0.00 85 1009.2
20260508204501 26 69 4.8 12.9 0.00 0.00 0.00 88 1009.1
20260508203004 26 86 3.2 8.0 0.00 0.00 0.00 91 1009.3
20260508201502 26 83 3.2 12.9 0.00 0.00 0.00 90 1009.4
20260508200002 26 46 1.6 6.4 0.00 0.00 0.00 88 1009.4
20260508194502 26 54 3.2 8.0 0.00 0.00 0.00 86 1009.7
20260508193008 27 88 3.2 8.0 0.00 0.00 0.00 84 1009.7
20260508191501 27 45 3.2 11.3 0.00 0.00 0.00 82 1010.0
20260508184559 27 54 6.4 16.1 0.00 0.00 0.00 78 1010.0
20260508184504 27 55 4.8 12.9 0.00 0.00 0.00 78 1010.0
20260508181502 27 15 0.0 4.8 0.00 0.00 0.00 85 1010.3
20260508174614 27 89 4.8 12.9 0.00 0.00 0.00 91 1010.8
20260508173007 27 73 3.2 6.4 0.00 0.00 0.00 91 1010.6
20260508171506 27 24 1.6 4.8 0.00 0.00 0.00 90 1010.6
20260508170003 27 116 1.6 4.8 0.00 0.00 0.00 90 1010.7
20260508164503 27 116 0.0 3.2 0.00 0.00 0.00 89 1010.6
20260508163005 27 116 1.6 3.2 0.00 0.00 0.00 89 1010.5
20260508161504 27 138 0.0 3.2 0.00 0.00 0.00 89 1010.4
20260508160001 27 167 0.0 1.6 0.00 0.00 0.00 89 1010.3
20260508154502 27 248 0.0 3.2 0.00 0.00 0.00 89 1010.2
20260508153005 27 248 1.6 4.8 0.00 0.00 0.00 89 1010.0
20260508151503 27 273 0.0 3.2 0.00 0.00 0.00 88 1009.8
20260508150003 28 252 0.0 1.6 0.00 0.00 0.00 88 1009.7
20260508144502 28 280 0.0 3.2 0.00 0.00 0.00 87 1009.5
20260508143004 28 209 0.0 3.2 0.00 0.00 0.00 86 1009.2
20260508141505 28 275 0.0 4.8 0.00 0.00 0.00 85 1009.1
20260508140016 28 49 0.0 4.8 0.00 0.00 0.00 85 1008.9
20260508134505 28 180 1.6 8.0 0.00 0.00 0.00 84 1008.6
20260508133007 28 127 3.2 12.9 0.00 0.00 0.00 83 1008.2
20260508131504 29 241 4.8 12.9 0.00 0.00 0.00 82 1007.9
20260508130004 29 101 6.4 12.9 0.00 0.00 0.00 79 1007.6
20260508124504 30 142 6.4 12.9 0.00 0.00 0.00 77 1007.6
20260508123010 30 90 4.8 12.9 0.00 0.00 0.00 75 1007.3
20260508121505 31 46 4.8 11.3 0.00 0.00 0.00 74 1007.2
20260508120005 32 78 4.8 11.3 0.00 0.00 0.00 72 1007.0
20260508114504 33 127 3.2 9.7 0.00 0.00 0.00 70 1007.0
20260508113011 33 244 3.2 12.9 0.00 0.00 0.00 67 1006.8
20260508111504 34 243 4.8 11.3 0.00 0.00 0.00 64 1006.8
20260508110004 34 303 3.2 11.3 0.00 0.00 0.00 63 1006.6
20260508104504 35 257 6.4 12.9 0.00 0.00 0.00 59 1006.7
20260508103007 35 324 0.0 8.0 0.00 0.00 0.00 57 1006.8
20260508101504 35 275 0.0 9.7 0.00 0.00 0.00 58 1007.1
20260508100006 35 284 3.2 12.9 0.00 0.00 0.00 59 1007.1
20260508094508 35 87 1.6 9.7 0.00 0.00 0.00 58 1007.2
20260508093011 35 69 3.2 6.4 0.00 0.00 0.00 59 1007.5
20260508091503 35 104 4.8 9.7 0.00 0.00 0.00 59 1007.9
20260508090005 35 259 4.8 12.9 0.00 0.00 0.00 60 1008.1
20260508084504 35 47 1.6 12.9 0.00 0.00 0.00 60 1008.3
20260508083007 35 250 4.8 12.9 0.00 0.00 0.00 62 1008.5
20260508081518 35 211 6.4 16.1 0.00 0.00 0.00 59 1008.7
20260508080004 35 96 1.6 14.5 0.00 0.00 0.00 59 1008.9
20260508074504 35 270 3.2 6.4 0.00 0.00 0.00 61 1009.2
20260508073007 34 57 3.2 11.3 0.00 0.00 0.00 62 1009.4
20260508070004 33 249 3.2 19.3 0.00 0.00 0.00 66 1010.0
20260508064505 33 279 6.4 14.5 0.00 0.00 0.00 67 1010.0
20260508063006 33 315 3.2 16.1 0.00 0.00 0.00 68 1010.1
20260508061504 33 283 4.8 16.1 0.00 0.00 0.00 68 1010.4
20260508060002 33 298 8.0 16.1 0.00 0.00 0.00 70 1010.7
20260508054503 32 266 3.2 19.3 0.00 0.00 0.00 71 1010.8
20260508053006 32 250 8.0 16.1 0.00 0.00 0.00 70 1010.8
20260508051503 33 319 3.2 9.7 0.00 0.00 0.00 70 1010.8
20260508050005 33 47 3.2 9.7 0.00 0.00 0.00 71 1011.0
20260508044505 32 184 3.2 12.9 0.00 0.00 0.00 72 1011.1